| time (UTC) | temp F | wind direction | speed knots | gust knots | rain 1hr in | rain 24hr in | rain mn in | humidity % | barometer mb |
| 20260507155336 | 84 | 93 | 1.7 | 2.6 | 0.00 | 0.00 | 0.00 | 30 | 1017.5 |
| 20260507154833 | 84 | 68 | 1.7 | 2.6 | 0.00 | 0.00 | 0.00 | 30 | 1017.7 |
| 20260507154331 | 83 | 61 | 1.7 | 2.6 | 0.00 | 0.00 | 0.00 | 30 | 1017.7 |
| 20260507153828 | 83 | 59 | 1.7 | 3.5 | 0.00 | 0.00 | 0.00 | 30 | 1017.6 |
| 20260507153324 | 82 | 86 | 2.6 | 3.5 | 0.00 | 0.00 | 0.00 | 30 | 1017.7 |
| 20260507152820 | 82 | 74 | 1.7 | 3.5 | 0.00 | 0.00 | 0.00 | 31 | 1017.6 |
| 20260507152317 | 82 | 101 | 2.6 | 3.5 | 0.00 | 0.00 | 0.00 | 30 | 1017.7 |
| 20260507151813 | 82 | 85 | 1.7 | 3.5 | 0.00 | 0.00 | 0.00 | 31 | 1017.7 |
| 20260507151309 | 81 | 101 | 1.7 | 2.6 | 0.00 | 0.00 | 0.00 | 31 | 1017.7 |
| 20260507150806 | 81 | 46 | 1.7 | 1.7 | 0.00 | 0.00 | 0.00 | 31 | 1018.0 |
| 20260507150303 | 81 | 87 | 1.7 | 2.6 | 0.00 | 0.00 | 0.00 | 31 | 1017.6 |
| 20260507145759 | 82 | 80 | 1.7 | 2.6 | 0.00 | 0.00 | 0.00 | 31 | 1017.6 |
| 20260507145255 | 80 | 66 | 1.7 | 2.6 | 0.00 | 0.00 | 0.00 | 32 | 1017.5 |
| 20260507144753 | 80 | 82 | 1.7 | 2.6 | 0.00 | 0.00 | 0.00 | 32 | 1017.6 |
| 20260507144250 | 80 | 61 | 1.7 | 2.6 | 0.00 | 0.00 | 0.00 | 32 | 1017.7 |
| 20260507143746 | 79 | 59 | 0.0 | 1.7 | 0.00 | 0.00 | 0.00 | 32 | 1017.6 |
| 20260507143244 | 79 | 73 | 0.0 | 1.7 | 0.00 | 0.00 | 0.00 | 32 | 1017.6 |
| 20260507142739 | 78 | 53 | 0.0 | 0.9 | 0.00 | 0.00 | 0.00 | 34 | 1017.5 |
| 20260507142236 | 76 | 304 | 0.0 | 0.0 | 0.00 | 0.00 | 0.00 | 36 | 1017.5 |
| 20260507141733 | 76 | 132 | 0.0 | 0.0 | 0.00 | 0.00 | 0.00 | 34 | 1017.6 |
| 20260507141230 | 76 | 286 | 0.0 | 0.9 | 0.00 | 0.00 | 0.00 | 34 | 1017.4 |
| 20260507140726 | 77 | 75 | 0.0 | 1.7 | 0.00 | 0.00 | 0.00 | 33 | 1017.4 |
| 20260507140224 | 73 | 326 | 0.0 | 0.0 | 0.00 | 0.00 | 0.00 | 36 | 1017.4 |
| 20260507135720 | 72 | 279 | 0.0 | 0.9 | 0.00 | 0.00 | 0.00 | 36 | 1017.2 |
| 20260507135218 | 71 | 246 | 0.0 | 1.7 | 0.00 | 0.00 | 0.00 | 36 | 1017.2 |
| 20260507134714 | 69 | 252 | 0.0 | 1.7 | 0.00 | 0.00 | 0.00 | 37 | 1017.2 |
| 20260507134210 | 68 | 258 | 0.0 | 1.7 | 0.00 | 0.00 | 0.00 | 39 | 1017.3 |
| 20260507133706 | 67 | 277 | 0.0 | 1.7 | 0.00 | 0.00 | 0.00 | 40 | 1017.3 |
| 20260507133203 | 66 | 279 | 0.0 | 1.7 | 0.00 | 0.00 | 0.00 | 41 | 1017.4 |
| 20260507132701 | 65 | 113 | 0.0 | 1.7 | 0.00 | 0.00 | 0.00 | 43 | 1017.3 |
| 20260507132157 | 64 | 229 | 0.0 | 0.9 | 0.00 | 0.00 | 0.00 | 44 | 1017.2 |
| 20260507131654 | 63 | 179 | 0.9 | 1.7 | 0.00 | 0.00 | 0.00 | 47 | 1017.1 |
| 20260507131151 | 62 | 234 | 1.7 | 1.7 | 0.00 | 0.00 | 0.00 | 45 | 1017.1 |
| 20260507130648 | 63 | 228 | 0.9 | 2.6 | 0.00 | 0.00 | 0.00 | 44 | 1017.2 |
| 20260507130146 | 63 | 141 | 0.0 | 1.7 | 0.00 | 0.00 | 0.00 | 48 | 1017.0 |
| 20260507125644 | 62 | 160 | 0.0 | 0.9 | 0.00 | 0.00 | 0.00 | 45 | 1017.1 |
| 20260507125142 | 61 | 306 | 0.0 | 1.7 | 0.00 | 0.00 | 0.00 | 47 | 1017.1 |
| 20260507124637 | 61 | 99 | 0.9 | 1.7 | 0.00 | 0.00 | 0.00 | 46 | 1016.9 |
| 20260507124135 | 62 | 286 | 1.7 | 1.7 | 0.00 | 0.00 | 0.00 | 46 | 1016.9 |
| 20260507123633 | 61 | 238 | 0.9 | 1.7 | 0.00 | 0.00 | 0.00 | 46 | 1017.0 |
| 20260507123130 | 62 | 230 | 0.0 | 1.7 | 0.00 | 0.00 | 0.00 | 46 | 1016.8 |
| 20260507122625 | 61 | 259 | 0.0 | 1.7 | 0.00 | 0.00 | 0.00 | 46 | 1016.9 |
| 20260507122121 | 62 | 173 | 0.9 | 1.7 | 0.00 | 0.00 | 0.00 | 45 | 1017.0 |
| 20260507121617 | 62 | 59 | 0.9 | 1.7 | 0.00 | 0.00 | 0.00 | 47 | 1016.9 |
| 20260507121113 | 62 | 296 | 0.0 | 1.7 | 0.00 | 0.00 | 0.00 | 46 | 1016.9 |
| 20260507120609 | 62 | 218 | 0.0 | 0.9 | 0.00 | 0.00 | 0.00 | 46 | 1016.8 |
| 20260507120106 | 63 | 242 | 1.7 | 1.7 | 0.00 | 0.00 | 0.00 | 46 | 1016.8 |
| 20260507115603 | 62 | 227 | 0.9 | 1.7 | 0.00 | 0.00 | 0.00 | 46 | 1016.9 |
| 20260507115059 | 64 | 213 | 1.7 | 2.6 | 0.00 | 0.00 | 0.00 | 45 | 1016.9 |
| 20260507114555 | 63 | 232 | 0.0 | 0.9 | 0.00 | 0.00 | 0.00 | 44 | 1017.0 |
| 20260507114052 | 63 | 236 | 0.0 | 1.7 | 0.00 | 0.00 | 0.00 | 43 | 1016.8 |
| 20260507113549 | 63 | 164 | 0.0 | 1.7 | 0.00 | 0.00 | 0.00 | 43 | 1016.8 |
| 20260507113046 | 63 | 296 | 0.0 | 1.7 | 0.00 | 0.00 | 0.00 | 43 | 1016.9 |
| 20260507112544 | 64 | 228 | 1.7 | 2.6 | 0.00 | 0.00 | 0.00 | 42 | 1016.9 |
| 20260507112040 | 64 | 163 | 1.7 | 2.6 | 0.00 | 0.00 | 0.00 | 42 | 1016.6 |
| 20260507111538 | 63 | 194 | 1.7 | 1.7 | 0.00 | 0.00 | 0.00 | 44 | 1016.7 |
| 20260507111034 | 63 | 162 | 0.0 | 0.9 | 0.00 | 0.00 | 0.00 | 45 | 1016.6 |
| 20260507110531 | 63 | 269 | 0.0 | 1.7 | 0.00 | 0.00 | 0.00 | 44 | 1017.0 |
| 20260507110027 | 64 | 160 | 0.0 | 1.7 | 0.00 | 0.00 | 0.00 | 44 | 1016.8 |
| 20260507105525 | 64 | 238 | 0.0 | 0.9 | 0.00 | 0.00 | 0.00 | 44 | 1016.8 |
| 20260507105020 | 64 | 291 | 0.0 | 1.7 | 0.00 | 0.00 | 0.00 | 44 | 1016.7 |
| 20260507104518 | 63 | 299 | 0.0 | 1.7 | 0.00 | 0.00 | 0.00 | 44 | 1016.7 |
| 20260507104015 | 64 | 208 | 0.0 | 1.7 | 0.00 | 0.00 | 0.00 | 43 | 1016.9 |
| 20260507103505 | 65 | 180 | 0.9 | 1.7 | 0.00 | 0.00 | 0.00 | 43 | 1016.8 |
| 20260507103002 | 65 | 162 | 0.9 | 1.7 | 0.00 | 0.00 | 0.00 | 43 | 1016.9 |
| 20260507102459 | 65 | 141 | 0.9 | 1.7 | 0.00 | 0.00 | 0.00 | 44 | 1016.7 |
| 20260507101954 | 65 | 212 | 0.9 | 1.7 | 0.00 | 0.00 | 0.00 | 44 | 1016.7 |
| 20260507101449 | 64 | 180 | 0.0 | 0.9 | 0.00 | 0.00 | 0.00 | 43 | 1016.8 |
| 20260507100946 | 64 | 189 | 0.9 | 0.9 | 0.00 | 0.00 | 0.00 | 44 | 1016.9 |
| 20260507100443 | 64 | 197 | 0.0 | 1.7 | 0.00 | 0.00 | 0.00 | 45 | 1016.9 |
| 20260507095942 | 65 | 140 | 0.9 | 0.9 | 0.00 | 0.00 | 0.00 | 44 | 1016.9 |
| 20260507095439 | 64 | 146 | 0.0 | 0.0 | 0.00 | 0.00 | 0.00 | 46 | 1016.8 |
| 20260507094936 | 66 | 211 | 0.0 | 1.7 | 0.00 | 0.00 | 0.00 | 44 | 1016.9 |
| 20260507094432 | 66 | 14 | 0.0 | 0.9 | 0.00 | 0.00 | 0.00 | 44 | 1016.9 |
| 20260507093929 | 66 | 206 | 0.9 | 1.7 | 0.00 | 0.00 | 0.00 | 44 | 1017.1 |
| 20260507093427 | 65 | 256 | 1.7 | 1.7 | 0.00 | 0.00 | 0.00 | 45 | 1016.8 |
| 20260507092925 | 65 | 212 | 0.0 | 0.9 | 0.00 | 0.00 | 0.00 | 44 | 1017.2 |
| 20260507092420 | 66 | 170 | 1.7 | 1.7 | 0.00 | 0.00 | 0.00 | 44 | 1017.2 |
| 20260507091917 | 65 | 248 | 0.9 | 1.7 | 0.00 | 0.00 | 0.00 | 45 | 1017.4 |
| 20260507091414 | 66 | 243 | 0.9 | 1.7 | 0.00 | 0.00 | 0.00 | 44 | 1017.2 |
| 20260507090910 | 66 | 239 | 0.0 | 0.9 | 0.00 | 0.00 | 0.00 | 43 | 1017.5 |
| 20260507090406 | 66 | 153 | 0.9 | 1.7 | 0.00 | 0.00 | 0.00 | 44 | 1017.4 |
| 20260507085903 | 66 | 219 | 0.0 | 1.7 | 0.00 | 0.00 | 0.00 | 44 | 1017.6 |
| 20260507085400 | 67 | 213 | 0.9 | 1.7 | 0.00 | 0.00 | 0.00 | 44 | 1017.5 |
| 20260507084857 | 66 | 171 | 0.0 | 1.7 | 0.00 | 0.00 | 0.00 | 45 | 1017.7 |
| 20260507084354 | 66 | 176 | 0.0 | 1.7 | 0.00 | 0.00 | 0.00 | 45 | 1017.6 |
| 20260507083851 | 66 | 234 | 0.0 | 1.7 | 0.00 | 0.00 | 0.00 | 44 | 1017.7 |
| 20260507083347 | 67 | 204 | 0.9 | 2.6 | 0.00 | 0.00 | 0.00 | 43 | 1017.7 |
| 20260507082843 | 67 | 125 | 0.9 | 1.7 | 0.00 | 0.00 | 0.00 | 45 | 1017.8 |
| 20260507082339 | 68 | 66 | 0.0 | 0.9 | 0.00 | 0.00 | 0.00 | 45 | 1017.6 |
| 20260507081837 | 68 | 89 | 0.0 | 0.0 | 0.00 | 0.00 | 0.00 | 45 | 1017.6 |
| 20260507081332 | 68 | 309 | 0.0 | 0.0 | 0.00 | 0.00 | 0.00 | 42 | 1017.8 |
| 20260507080829 | 68 | 202 | 0.9 | 1.7 | 0.00 | 0.00 | 0.00 | 42 | 1017.9 |
| 20260507080325 | 68 | 212 | 0.0 | 0.9 | 0.00 | 0.00 | 0.00 | 42 | 1017.8 |
| 20260507075821 | 68 | 44 | 0.0 | 1.7 | 0.00 | 0.00 | 0.00 | 42 | 1017.8 |
| 20260507075317 | 69 | 269 | 0.0 | 0.9 | 0.00 | 0.00 | 0.00 | 39 | 1017.9 |
| 20260507074814 | 70 | 55 | 0.0 | 0.9 | 0.00 | 0.00 | 0.00 | 41 | 1017.6 |
| 20260507074312 | 69 | 107 | 0.0 | 0.9 | 0.00 | 0.00 | 0.00 | 42 | 1017.7 |
| 20260507073809 | 71 | 196 | 0.9 | 1.7 | 0.00 | 0.00 | 0.00 | 41 | 1017.7 |
| 20260507073305 | 72 | 119 | 0.0 | 1.7 | 0.00 | 0.00 | 0.00 | 40 | 1017.7 |
| 20260507072802 | 72 | 223 | 1.7 | 2.6 | 0.00 | 0.00 | 0.00 | 41 | 1017.6 |
| 20260507072300 | 73 | 173 | 0.0 | 2.6 | 0.00 | 0.00 | 0.00 | 42 | 1017.9 |
| 20260507071757 | 71 | 146 | 1.7 | 2.6 | 0.00 | 0.00 | 0.00 | 43 | 1017.8 |
| 20260507071253 | 70 | 168 | 1.7 | 1.7 | 0.00 | 0.00 | 0.00 | 44 | 1017.9 |
| 20260507070750 | 69 | 252 | 0.9 | 1.7 | 0.00 | 0.00 | 0.00 | 43 | 1017.7 |
| 20260507070247 | 69 | 269 | 0.0 | 1.7 | 0.00 | 0.00 | 0.00 | 42 | 1017.9 |
| 20260507065744 | 70 | 316 | 0.0 | 2.6 | 0.00 | 0.00 | 0.00 | 43 | 1017.8 |
| 20260507065241 | 69 | 311 | 0.0 | 1.7 | 0.00 | 0.00 | 0.00 | 44 | 1017.7 |
| 20260507064738 | 70 | 106 | 1.7 | 2.6 | 0.00 | 0.00 | 0.00 | 43 | 1017.8 |
| 20260507064237 | 70 | 60 | 0.0 | 1.7 | 0.00 | 0.00 | 0.00 | 43 | 1017.8 |
| 20260507063734 | 70 | 91 | 0.0 | 1.7 | 0.00 | 0.00 | 0.00 | 42 | 1017.6 |
| 20260507063230 | 71 | 126 | 0.0 | 1.7 | 0.00 | 0.00 | 0.00 | 41 | 1017.6 |
| 20260507062727 | 72 | 124 | 1.7 | 1.7 | 0.00 | 0.00 | 0.00 | 41 | 1017.7 |
| 20260507062225 | 72 | 109 | 0.0 | 1.7 | 0.00 | 0.00 | 0.00 | 42 | 1017.6 |
| 20260507061723 | 71 | 235 | 0.9 | 1.7 | 0.00 | 0.00 | 0.00 | 41 | 1017.7 |
| 20260507061221 | 72 | 173 | 0.0 | 0.9 | 0.00 | 0.00 | 0.00 | 42 | 1017.6 |
| 20260507060718 | 71 | 171 | 0.0 | 0.9 | 0.00 | 0.00 | 0.00 | 42 | 1017.5 |
| 20260507060214 | 71 | 224 | 0.0 | 0.9 | 0.00 | 0.00 | 0.00 | 39 | 1017.7 |
| 20260507055711 | 73 | 212 | 0.0 | 1.7 | 0.00 | 0.00 | 0.00 | 40 | 1017.7 |
| 20260507055207 | 73 | 65 | 0.0 | 1.7 | 0.00 | 0.00 | 0.00 | 38 | 1017.7 |
| 20260507054703 | 74 | 49 | 0.0 | 1.7 | 0.00 | 0.00 | 0.00 | 37 | 1017.5 |
| 20260507054159 | 74 | 287 | 0.0 | 3.5 | 0.00 | 0.00 | 0.00 | 37 | 1017.7 |
| 20260507053658 | 75 | 87 | 0.9 | 2.6 | 0.00 | 0.00 | 0.00 | 36 | 1017.6 |
| 20260507053155 | 75 | 131 | 0.9 | 1.7 | 0.00 | 0.00 | 0.00 | 36 | 1017.7 |
| 20260507052654 | 74 | 127 | 0.0 | 3.5 | 0.00 | 0.00 | 0.00 | 36 | 1017.7 |
| 20260507052149 | 74 | 170 | 0.9 | 1.7 | 0.00 | 0.00 | 0.00 | 36 | 1017.7 |
| 20260507051647 | 74 | 217 | 1.7 | 1.7 | 0.00 | 0.00 | 0.00 | 36 | 1017.6 |
| 20260507051144 | 74 | 174 | 0.9 | 1.7 | 0.00 | 0.00 | 0.00 | 36 | 1017.8 |
| 20260507050641 | 75 | 66 | 0.0 | 1.7 | 0.00 | 0.00 | 0.00 | 34 | 1017.9 |
| 20260507050137 | 75 | 151 | 1.7 | 1.7 | 0.00 | 0.00 | 0.00 | 34 | 1017.9 |
| 20260507045634 | 75 | 75 | 0.0 | 3.5 | 0.00 | 0.00 | 0.00 | 34 | 1018.0 |
| 20260507045131 | 75 | 180 | 0.0 | 1.7 | 0.00 | 0.00 | 0.00 | 35 | 1017.8 |
| 20260507044628 | 77 | 89 | 0.0 | 1.7 | 0.00 | 0.00 | 0.00 | 36 | 1018.0 |
| 20260507044125 | 78 | 358 | 0.9 | 0.9 | 0.00 | 0.00 | 0.00 | 35 | 1017.9 |
| 20260507043621 | 78 | 206 | 0.0 | 3.5 | 0.00 | 0.00 | 0.00 | 35 | 1017.7 |
| 20260507043118 | 79 | 268 | 1.7 | 2.6 | 0.00 | 0.00 | 0.00 | 35 | 1017.8 |
| 20260507042614 | 79 | 245 | 3.5 | 4.3 | 0.00 | 0.00 | 0.00 | 35 | 1018.0 |
| 20260507042109 | 78 | 280 | 0.0 | 2.6 | 0.00 | 0.00 | 0.00 | 35 | 1017.7 |
| 20260507041606 | 79 | 245 | 2.6 | 3.5 | 0.00 | 0.00 | 0.00 | 35 | 1017.7 |
| 20260507041103 | 79 | 250 | 1.7 | 4.3 | 0.00 | 0.00 | 0.00 | 35 | 1017.8 |
| 20260507040600 | 79 | 25 | 0.0 | 2.6 | 0.00 | 0.00 | 0.00 | 35 | 1017.8 |
| 20260507040056 | 79 | 330 | 3.5 | 4.3 | 0.00 | 0.00 | 0.00 | 35 | 1017.6 |
| 20260507035552 | 79 | 337 | 1.7 | 2.6 | 0.00 | 0.00 | 0.00 | 34 | 1017.8 |
| 20260507035044 | 79 | 333 | 2.6 | 3.5 | 0.00 | 0.00 | 0.00 | 34 | 1017.8 |
| 20260507034540 | 80 | 333 | 1.7 | 5.2 | 0.00 | 0.00 | 0.00 | 34 | 1017.6 |
| 20260507034038 | 80 | 331 | 1.7 | 7.0 | 0.00 | 0.00 | 0.00 | 34 | 1017.4 |
| 20260507033536 | 80 | 304 | 2.6 | 7.0 | 0.00 | 0.00 | 0.00 | 34 | 1017.7 |
| 20260507033033 | 80 | 326 | 1.7 | 4.3 | 0.00 | 0.00 | 0.00 | 34 | 1017.4 |
| 20260507032530 | 80 | 315 | 6.1 | 10.4 | 0.00 | 0.00 | 0.00 | 34 | 1017.3 |
| 20260507032026 | 80 | 305 | 2.6 | 5.2 | 0.00 | 0.00 | 0.00 | 35 | 1017.3 |
| 20260507031522 | 80 | 302 | 2.6 | 5.2 | 0.00 | 0.00 | 0.00 | 35 | 1017.2 |
| 20260507031020 | 81 | 312 | 3.5 | 6.1 | 0.00 | 0.00 | 0.00 | 35 | 1017.2 |
| 20260507030516 | 81 | 337 | 3.5 | 7.0 | 0.00 | 0.00 | 0.00 | 35 | 1017.2 |
| 20260507030014 | 81 | 327 | 5.2 | 6.1 | 0.00 | 0.00 | 0.00 | 35 | 1016.9 |
| 20260507025511 | 81 | 322 | 4.3 | 7.0 | 0.00 | 0.00 | 0.00 | 35 | 1016.9 |
| 20260507025008 | 81 | 310 | 6.1 | 7.8 | 0.00 | 0.00 | 0.00 | 35 | 1016.8 |
| 20260507024506 | 81 | 340 | 2.6 | 2.6 | 0.00 | 0.00 | 0.00 | 32 | 1016.9 |
| 20260507024001 | 81 | 109 | 0.9 | 1.7 | 0.00 | 0.00 | 0.00 | 28 | 1016.9 |
| 20260507023458 | 81 | 1 | 1.7 | 2.6 | 0.00 | 0.00 | 0.00 | 24 | 1016.8 |
| 20260507022955 | 80 | 352 | 1.7 | 1.7 | 0.00 | 0.00 | 0.00 | 24 | 1017.0 |
| 20260507022452 | 81 | 347 | 0.9 | 1.7 | 0.00 | 0.00 | 0.00 | 24 | 1016.7 |
| 20260507021948 | 81 | 51 | 0.0 | 1.7 | 0.00 | 0.00 | 0.00 | 23 | 1016.6 |
| 20260507021443 | 82 | 69 | 0.9 | 1.7 | 0.00 | 0.00 | 0.00 | 23 | 1016.7 |
| 20260507020941 | 82 | 85 | 1.7 | 1.7 | 0.00 | 0.00 | 0.00 | 23 | 1016.6 |
| 20260507020437 | 82 | 108 | 1.7 | 1.7 | 0.00 | 0.00 | 0.00 | 22 | 1016.5 |
| 20260507015934 | 83 | 48 | 0.0 | 1.7 | 0.00 | 0.00 | 0.00 | 22 | 1016.6 |
| 20260507015433 | 83 | 75 | 1.7 | 2.6 | 0.00 | 0.00 | 0.00 | 22 | 1016.7 |
| 20260507014924 | 83 | 81 | 2.6 | 3.5 | 0.00 | 0.00 | 0.00 | 22 | 1016.3 |
| 20260507014421 | 83 | 93 | 1.7 | 4.3 | 0.00 | 0.00 | 0.00 | 22 | 1016.3 |
| 20260507013917 | 83 | 87 | 3.5 | 4.3 | 0.00 | 0.00 | 0.00 | 22 | 1016.3 |
| 20260507013414 | 84 | 86 | 2.6 | 3.5 | 0.00 | 0.00 | 0.00 | 22 | 1016.5 |
| 20260507012912 | 84 | 94 | 3.5 | 5.2 | 0.00 | 0.00 | 0.00 | 22 | 1016.5 |
| 20260507012408 | 84 | 95 | 3.5 | 4.3 | 0.00 | 0.00 | 0.00 | 21 | 1016.6 |
| 20260507011904 | 86 | 89 | 1.7 | 3.5 | 0.00 | 0.00 | 0.00 | 21 | 1016.3 |
| 20260507011401 | 88 | 55 | 1.7 | 2.6 | 0.00 | 0.00 | 0.00 | 20 | 1016.3 |
| 20260507010855 | 87 | 248 | 0.0 | 3.5 | 0.00 | 0.00 | 0.00 | 20 | 1016.3 |
| 20260507010351 | 86 | 103 | 0.0 | 2.6 | 0.00 | 0.00 | 0.00 | 21 | 1016.2 |
| 20260507005849 | 86 | 41 | 0.9 | 4.3 | 0.00 | 0.00 | 0.00 | 21 | 1016.3 |
| 20260507005345 | 87 | 175 | 0.0 | 3.5 | 0.00 | 0.00 | 0.00 | 20 | 1016.1 |
| 20260507004842 | 87 | 42 | 2.6 | 4.3 | 0.00 | 0.00 | 0.00 | 20 | 1016.2 |
| 20260507004339 | 90 | 71 | 1.7 | 2.6 | 0.00 | 0.00 | 0.00 | 19 | 1016.1 |
| 20260507003836 | 88 | 96 | 0.9 | 2.6 | 0.00 | 0.00 | 0.00 | 20 | 1016.2 |
| 20260507003331 | 87 | 83 | 2.6 | 4.3 | 0.00 | 0.00 | 0.00 | 20 | 1016.5 |
| 20260507002826 | 87 | 94 | 1.7 | 7.0 | 0.00 | 0.00 | 0.00 | 20 | 1016.2 |
| 20260507002322 | 87 | 88 | 3.5 | 6.1 | 0.00 | 0.00 | 0.00 | 20 | 1016.1 |
| 20260507001820 | 88 | 80 | 1.7 | 4.3 | 0.00 | 0.00 | 0.00 | 20 | 1016.2 |
| 20260507001317 | 89 | 79 | 0.9 | 1.7 | 0.00 | 0.00 | 0.00 | 19 | 1016.1 |
| 20260507000813 | 87 | 167 | 0.9 | 2.6 | 0.00 | 0.00 | 0.00 | 20 | 1016.3 |
| 20260507000309 | 87 | 79 | 4.3 | 5.2 | 0.00 | 0.00 | 0.00 | 20 | 1016.2 |
| 20260506235806 | 87 | 76 | 2.6 | 3.5 | 0.00 | 0.00 | 0.00 | 20 | 1016.3 |
| 20260506235306 | 87 | 71 | 2.6 | 4.3 | 0.00 | 0.00 | 0.00 | 20 | 1016.2 |
| 20260506234753 | 88 | 91 | 3.5 | 5.2 | 0.00 | 0.00 | 0.00 | 20 | 1016.0 |
| 20260506234251 | 90 | 255 | 0.0 | 1.7 | 0.00 | 0.00 | 0.00 | 19 | 1016.1 |
| 20260506233748 | 88 | 73 | 1.7 | 2.6 | 0.00 | 0.00 | 0.00 | 20 | 1016.5 |
| 20260506233244 | 88 | 71 | 1.7 | 3.5 | 0.00 | 0.00 | 0.00 | 20 | 1016.3 |
| 20260506232741 | 88 | 97 | 1.7 | 3.5 | 0.00 | 0.00 | 0.00 | 20 | 1016.5 |
| 20260506232236 | 87 | 63 | 0.0 | 4.3 | 0.00 | 0.00 | 0.00 | 21 | 1016.5 |
| 20260506231734 | 87 | 98 | 2.6 | 6.1 | 0.00 | 0.00 | 0.00 | 20 | 1016.3 |
| 20260506231232 | 87 | 81 | 1.7 | 7.0 | 0.00 | 0.00 | 0.00 | 21 | 1016.6 |
| 20260506230729 | 86 | 109 | 6.1 | 11.3 | 0.00 | 0.00 | 0.00 | 21 | 1016.3 |
| 20260506230225 | 87 | 185 | 1.7 | 4.3 | 0.00 | 0.00 | 0.00 | 20 | 1016.6 |
| 20260506225722 | 88 | 161 | 1.7 | 5.2 | 0.00 | 0.00 | 0.00 | 20 | 1016.7 |
| 20260506225219 | 88 | 89 | 0.0 | 3.5 | 0.00 | 0.00 | 0.00 | 20 | 1016.8 |
| 20260506224715 | 88 | 215 | 1.7 | 3.5 | 0.00 | 0.00 | 0.00 | 20 | 1016.8 |
| 20260506224212 | 89 | 137 | 1.7 | 5.2 | 0.00 | 0.00 | 0.00 | 19 | 1016.7 |
| 20260506223709 | 88 | 110 | 2.6 | 7.0 | 0.00 | 0.00 | 0.00 | 20 | 1016.9 |
| 20260506223204 | 87 | 78 | 3.5 | 5.2 | 0.00 | 0.00 | 0.00 | 20 | 1017.0 |
| 20260506222701 | 87 | 4 | 1.7 | 4.3 | 0.00 | 0.00 | 0.00 | 20 | 1016.9 |
| 20260506222156 | 87 | 104 | 2.6 | 6.1 | 0.00 | 0.00 | 0.00 | 20 | 1017.2 |
| 20260506221650 | 86 | 92 | 5.2 | 7.8 | 0.00 | 0.00 | 0.00 | 20 | 1017.2 |
| 20260506221147 | 87 | 107 | 5.2 | 6.1 | 0.00 | 0.00 | 0.00 | 20 | 1017.3 |
| 20260506220644 | 87 | 88 | 5.2 | 10.4 | 0.00 | 0.00 | 0.00 | 20 | 1017.4 |
| 20260506220139 | 87 | 247 | 1.7 | 5.2 | 0.00 | 0.00 | 0.00 | 20 | 1017.4 |
| 20260506215636 | 88 | 128 | 1.7 | 4.3 | 0.00 | 0.00 | 0.00 | 20 | 1017.5 |
| 20260506215131 | 87 | 156 | 0.0 | 6.1 | 0.00 | 0.00 | 0.00 | 20 | 1017.5 |
| 20260506214628 | 86 | 95 | 4.3 | 6.1 | 0.00 | 0.00 | 0.00 | 21 | 1017.6 |
| 20260506214126 | 86 | 144 | 3.5 | 7.8 | 0.00 | 0.00 | 0.00 | 20 | 1017.7 |
| 20260506213624 | 86 | 108 | 7.8 | 7.8 | 0.00 | 0.00 | 0.00 | 20 | 1017.6 |
| 20260506213121 | 86 | 91 | 7.8 | 9.6 | 0.00 | 0.00 | 0.00 | 20 | 1017.5 |
| 20260506212618 | 86 | 98 | 3.5 | 5.2 | 0.00 | 0.00 | 0.00 | 20 | 1017.9 |
| 20260506212113 | 86 | 91 | 2.6 | 7.8 | 0.00 | 0.00 | 0.00 | 20 | 1018.0 |
| 20260506211608 | 86 | 86 | 2.6 | 3.5 | 0.00 | 0.00 | 0.00 | 21 | 1017.9 |
| 20260506211106 | 86 | 58 | 2.6 | 4.3 | 0.00 | 0.00 | 0.00 | 21 | 1018.2 |
| 20260506210602 | 86 | 110 | 0.9 | 3.5 | 0.00 | 0.00 | 0.00 | 20 | 1018.2 |
| 20260506210059 | 86 | 214 | 0.9 | 2.6 | 0.00 | 0.00 | 0.00 | 21 | 1018.2 |
| 20260506205556 | 86 | 178 | 2.6 | 4.3 | 0.00 | 0.00 | 0.00 | 20 | 1018.1 |
| 20260506205051 | 84 | 101 | 5.2 | 7.8 | 0.00 | 0.00 | 0.00 | 21 | 1018.2 |
| 20260506204549 | 86 | 96 | 4.3 | 5.2 | 0.00 | 0.00 | 0.00 | 21 | 1018.2 |
| 20260506204046 | 85 | 84 | 1.7 | 6.1 | 0.00 | 0.00 | 0.00 | 21 | 1018.4 |
| 20260506203544 | 85 | 104 | 3.5 | 7.0 | 0.00 | 0.00 | 0.00 | 21 | 1018.3 |
| 20260506203040 | 86 | 69 | 2.6 | 6.1 | 0.00 | 0.00 | 0.00 | 21 | 1018.5 |
| 20260506202538 | 84 | 163 | 4.3 | 7.0 | 0.00 | 0.00 | 0.00 | 21 | 1018.6 |
| 20260506202034 | 84 | 252 | 4.3 | 4.3 | 0.00 | 0.00 | 0.00 | 21 | 1018.5 |
| 20260506201532 | 84 | 20 | 1.7 | 3.5 | 0.00 | 0.00 | 0.00 | 22 | 1018.6 |
| 20260506201028 | 83 | 95 | 7.8 | 10.4 | 0.00 | 0.00 | 0.00 | 22 | 1018.8 |
| 20260506200524 | 84 | 73 | 4.3 | 5.2 | 0.00 | 0.00 | 0.00 | 22 | 1018.8 |
| 20260506200021 | 84 | 76 | 1.7 | 4.3 | 0.00 | 0.00 | 0.00 | 22 | 1018.8 |
| 20260506195518 | 84 | 126 | 3.5 | 7.8 | 0.00 | 0.00 | 0.00 | 22 | 1019.0 |
| 20260506195014 | 83 | 148 | 0.9 | 3.5 | 0.00 | 0.00 | 0.00 | 23 | 1019.1 |
| 20260506194512 | 83 | 113 | 3.5 | 7.0 | 0.00 | 0.00 | 0.00 | 22 | 1019.0 |
| 20260506194008 | 84 | 91 | 4.3 | 5.2 | 0.00 | 0.00 | 0.00 | 22 | 1019.2 |
| 20260506193505 | 82 | 97 | 2.6 | 10.4 | 0.00 | 0.00 | 0.00 | 23 | 1019.1 |
| 20260506192956 | 83 | 213 | 0.0 | 3.5 | 0.00 | 0.00 | 0.00 | 23 | 1019.2 |
| 20260506192454 | 84 | 128 | 5.2 | 5.2 | 0.00 | 0.00 | 0.00 | 22 | 1019.3 |
| 20260506191949 | 84 | 202 | 2.6 | 4.3 | 0.00 | 0.00 | 0.00 | 23 | 1019.2 |
| 20260506191447 | 82 | 163 | 0.9 | 5.2 | 0.00 | 0.00 | 0.00 | 23 | 1019.3 |
| 20260506190943 | 82 | 267 | 1.7 | 2.6 | 0.00 | 0.00 | 0.00 | 24 | 1019.4 |
| 20260506190440 | 81 | 313 | 0.9 | 3.5 | 0.00 | 0.00 | 0.00 | 25 | 1019.4 |
| 20260506185936 | 82 | 104 | 3.5 | 4.3 | 0.00 | 0.00 | 0.00 | 24 | 1019.5 |
| 20260506185434 | 82 | 173 | 3.5 | 4.3 | 0.00 | 0.00 | 0.00 | 25 | 1019.5 |
| 20260506184931 | 81 | 85 | 4.3 | 4.3 | 0.00 | 0.00 | 0.00 | 26 | 1019.5 |
| 20260506184427 | 82 | 302 | 0.0 | 2.6 | 0.00 | 0.00 | 0.00 | 25 | 1019.6 |
| 20260506183925 | 82 | 313 | 2.6 | 4.3 | 0.00 | 0.00 | 0.00 | 26 | 1019.7 |
| 20260506183420 | 80 | 112 | 2.6 | 7.8 | 0.00 | 0.00 | 0.00 | 26 | 1019.7 |
| 20260506182912 | 80 | 63 | 2.6 | 2.6 | 0.00 | 0.00 | 0.00 | 27 | 1019.8 |
| 20260506182409 | 79 | 141 | 1.7 | 3.5 | 0.00 | 0.00 | 0.00 | 28 | 1019.9 |
| 20260506181907 | 79 | 108 | 2.6 | 7.0 | 0.00 | 0.00 | 0.00 | 28 | 1019.7 |
| 20260506181404 | 81 | 96 | 0.9 | 4.3 | 0.00 | 0.00 | 0.00 | 27 | 1019.9 |
| 20260506180901 | 80 | 134 | 1.7 | 3.5 | 0.00 | 0.00 | 0.00 | 28 | 1019.8 |
| 20260506180357 | 77 | 102 | 3.5 | 7.8 | 0.00 | 0.00 | 0.00 | 29 | 1019.9 |
| 20260506175854 | 79 | 81 | 1.7 | 3.5 | 0.00 | 0.00 | 0.00 | 28 | 1019.8 |
| 20260506175350 | 80 | 82 | 1.7 | 3.5 | 0.00 | 0.00 | 0.00 | 28 | 1019.9 |
| 20260506174848 | 78 | 166 | 0.9 | 4.3 | 0.00 | 0.00 | 0.00 | 29 | 1020.0 |
| 20260506174345 | 77 | 35 | 0.9 | 4.3 | 0.00 | 0.00 | 0.00 | 30 | 1019.9 |
| 20260506173843 | 77 | 79 | 3.5 | 7.0 | 0.00 | 0.00 | 0.00 | 30 | 1019.9 |
| 20260506173339 | 78 | 58 | 0.0 | 2.6 | 0.00 | 0.00 | 0.00 | 29 | 1019.9 |
| 20260506172836 | 77 | 78 | 1.7 | 7.8 | 0.00 | 0.00 | 0.00 | 30 | 1020.2 |
| 20260506172333 | 76 | 107 | 2.6 | 5.2 | 0.00 | 0.00 | 0.00 | 30 | 1019.9 |
| 20260506171830 | 76 | 124 | 1.7 | 2.6 | 0.00 | 0.00 | 0.00 | 30 | 1020.0 |
| 20260506171327 | 76 | 112 | 2.6 | 7.0 | 0.00 | 0.00 | 0.00 | 30 | 1020.1 |
| 20260506170825 | 75 | 62 | 0.9 | 4.3 | 0.00 | 0.00 | 0.00 | 31 | 1020.0 |
| 20260506170320 | 76 | 108 | 2.6 | 4.3 | 0.00 | 0.00 | 0.00 | 30 | 1020.0 |
| 20260506165819 | 75 | 350 | 0.9 | 3.5 | 0.00 | 0.00 | 0.00 | 31 | 1019.8 |
| 20260506165316 | 75 | 95 | 3.5 | 3.5 | 0.00 | 0.00 | 0.00 | 31 | 1020.1 |
| 20260506164813 | 77 | 69 | 2.6 | 3.5 | 0.00 | 0.00 | 0.00 | 30 | 1020.0 |
| 20260506164310 | 76 | 162 | 1.7 | 3.5 | 0.00 | 0.00 | 0.00 | 31 | 1019.9 |
| 20260506163807 | 74 | 249 | 2.6 | 2.6 | 0.00 | 0.00 | 0.00 | 32 | 1019.9 |
| 20260506163301 | 74 | 145 | 0.9 | 3.5 | 0.00 | 0.00 | 0.00 | 33 | 1019.9 |
| 20260506162757 | 73 | 20 | 2.6 | 3.5 | 0.00 | 0.00 | 0.00 | 34 | 1019.8 |
| 20260506162256 | 73 | 258 | 0.0 | 2.6 | 0.00 | 0.00 | 0.00 | 34 | 1019.8 |
| 20260506161752 | 73 | 61 | 0.0 | 1.7 | 0.00 | 0.00 | 0.00 | 35 | 1019.8 |
| 20260506161250 | 73 | 89 | 0.0 | 2.6 | 0.00 | 0.00 | 0.00 | 35 | 1019.8 |
| 20260506160747 | 71 | 151 | 2.6 | 2.6 | 0.00 | 0.00 | 0.00 | 36 | 1019.7 |
| 20260506160244 | 72 | 117 | 3.5 | 3.5 | 0.00 | 0.00 | 0.00 | 35 | 1019.8 |
| 20260506155743 | 72 | 89 | 0.0 | 1.7 | 0.00 | 0.00 | 0.00 | 35 | 1019.8 |